[[{"header":{"parameterUnit":"m.s-1","parameterCategory":1,"la1":30.2991,"la2":30.254,"lo1":-89.0895,"lo2":-89.0444,"dy":0.0017,"dx":0.0017,"nx":28,"ny":28,"refTime":"2024-05-27T21:00:00:Z","depth":0,"parameterNumber":2,"parameterNumberName":"U-component_of_WINDS"},"data":[0,0,0,0,0,0,0,0,0,0,0,0,0,0,0,0,0,0,0,0,0,0,0,0,0,0,0,0,0,0,0,0,0,0,0,0,0,0,0,0,0,0,0,0,0,0,0,0,0,0,0,0,0,0,0,0,0,0,2.6798,2.6799,0,2.6903,2.6904,2.6905,2.6916,2.6915,2.6914,2.6913,2.7023,2.7027,2.7031,0,0,0,0,0,0,0,0,0,0,0,0,0,2.6612,2.6615,2.6798,2.6799,2.6801,2.6903,2.6904,2.6906,2.6917,2.6915,2.6914,2.6913,2.7022,2.7026,2.7031,0,0,0,0,0,0,0,0,0,0,0,0,0,2.6702,2.6616,2.6798,2.6819,2.6821,2.6902,2.6904,2.6906,2.6917,2.6915,2.6914,2.6912,2.702,2.7026,2.7032,2.71,0,0,2.705,2.7052,0,0,0,0,0,0,0,0,2.6697,2.6709,2.6814,2.6817,2.6821,2.6895,2.6879,2.6971,2.6917,2.6881,2.6913,2.6911,2.6982,2.6991,2.7014,2.7105,2.711,2.705,2.7054,2.7056,2.7058,0,0,0,0,0,0,0,2.6691,2.6705,2.684,2.6816,2.682,2.6824,2.6835,2.6896,2.6939,2.6884,2.6885,2.6897,2.6983,2.7008,2.7017,2.7112,2.705,2.7055,2.7059,2.7061,2.7266,2.7268,0,0,0,0,0,0,2.668,2.6699,2.6836,2.6843,2.6754,2.6829,2.6841,2.6873,2.6938,2.6947,2.6898,2.6897,2.6999,2.701,2.7021,2.7105,2.7056,2.7062,2.7065,2.7264,2.7266,2.7268,0,0,0,0,0,0,2.6676,2.6692,2.6832,2.6772,2.679,2.6833,2.6869,2.6876,2.69,2.6949,2.6957,2.6916,2.6998,2.7012,2.708,2.7109,2.7064,2.707,2.7262,2.7265,2.7267,2.7275,0,0,0,0,0,0,2.6671,2.6691,2.6716,2.6772,2.6793,2.6889,2.6871,2.6879,2.691,2.691,2.6968,2.6976,2.6998,2.7072,2.7086,2.7117,2.7074,2.7259,2.7263,2.7267,2.7272,2.7278,2.7282,0,0,0,0,0,2.6664,2.6714,2.6717,2.6734,2.6825,2.689,2.6903,2.6926,2.6913,2.6939,2.6971,2.6974,2.7104,2.7078,2.7095,2.7128,2.7258,2.7262,2.7266,2.727,2.7277,2.7282,0,0,0,0,0,0,2.6661,2.6722,2.6726,2.6795,2.6838,2.6892,2.6926,2.6932,2.698,2.6978,2.7006,2.7019,2.7086,2.7114,2.7084,2.7198,2.718,2.7188,2.7177,2.7184,2.7189,2.718,2.7079,0,0,0,0,0,2.6668,2.6715,2.6767,2.6823,2.6844,2.6882,2.6911,2.6926,2.6971,2.6989,2.7026,2.707,2.7122,2.7154,2.7204,2.7277,2.729,2.7308,2.7313,2.7317,2.7323,2.7365,2.7373,2.7283,2.7283,2.7283,0,0,2.6684,2.6723,2.6751,2.6824,2.6858,2.6907,2.6896,2.6949,2.6986,2.6997,2.7063,2.7092,2.7144,2.7215,2.7249,2.7241,2.7351,2.7323,2.7325,2.7329,2.737,2.7379,2.7386,2.7286,2.7285,2.7285,0,0,2.6737,2.6772,2.6822,2.6858,2.691,2.6935,2.6948,2.7002,2.7021,2.7088,2.7098,2.7144,2.7231,2.7268,2.7298,2.7368,2.7373,2.7384,2.741,2.745,2.7457,2.7463,2.7488,2.7497,2.739,2.739,2.739,0,2.675,2.6823,2.6848,2.69,2.6932,2.6946,2.6998,2.7032,2.7098,2.712,2.7111,2.7221,2.7257,2.7337,2.7355,2.7379,2.7395,2.7376,2.7454,2.7461,2.7467,2.7491,2.75,2.7391,2.7391,2.7391,2.7391,0,2.6837,2.6888,2.6923,2.6986,2.7023,2.7075,2.7109,2.7143,2.7156,2.7182,2.7252,2.7296,2.7355,2.7375,2.7388,2.7458,2.7452,2.7448,2.7429,2.7476,2.7499,2.7509,2.7392,2.7392,2.7392,2.7392,0,0,2.6888,2.6966,2.6978,2.7008,2.7068,2.7108,2.7163,2.722,2.7249,2.7295,2.7341,2.7416,2.7413,2.7448,2.7466,2.7501,2.7554,2.7493,2.7495,2.7502,2.7634,2.7636,2.7646,2.7559,2.7561,2.7562,2.763,0,2.6947,2.7042,2.7067,2.7148,2.7196,2.7211,2.7259,2.7301,2.7328,2.7374,2.7405,2.7457,2.745,2.747,2.7506,2.754,2.7581,2.7536,2.7602,2.7604,2.7587,2.7658,2.7659,2.7721,2.7639,2.764,2.7642,0,2.7028,2.7076,2.7161,2.7217,2.7238,2.728,2.7335,2.7379,2.7429,2.7446,2.7485,2.75,2.7559,2.7539,2.762,2.7589,2.7618,2.7639,2.7642,2.7648,2.7624,2.7665,2.7741,2.775,2.7656,2.7655,2.7654,0,2.7056,2.7142,2.7205,2.723,2.7296,2.7325,2.7354,2.7403,2.7436,2.7486,2.7508,2.7564,2.7594,2.7638,2.7668,2.7651,2.7747,2.7729,2.7763,2.7763,2.7781,2.7779,2.7862,2.7802,2.7802,2.7802,2.7802,0,2.7119,2.7171,2.7218,2.7256,2.7316,2.7346,2.7404,2.7434,2.7477,2.7522,2.754,2.7582,2.762,2.7668,2.7693,2.7757,2.7771,2.7787,2.7792,2.7784,2.7782,2.7803,2.7799,2.7805,2.7804,2.7803,2.7803,0,2.7159,2.7193,2.7262,2.732,2.7336,2.7377,2.7427,2.7466,2.7494,2.7552,2.7567,2.7612,2.767,2.7705,2.7778,2.7795,2.7865,2.787,2.7848,2.785,2.7881,2.7878,2.7979,2.7994,2.7925,2.7926,2.7926,0,2.7196,2.7236,2.7299,2.733,2.7359,2.741,2.7444,2.7477,2.7512,2.7573,2.7605,2.7664,2.7712,2.7804,2.7844,2.7901,2.7906,2.7938,2.7915,2.7906,2.7906,2.7902,2.7907,2.7941,2.7942,2.7942,2.7943,0,2.7258,2.7273,2.7321,2.7377,2.7418,2.7463,2.7508,2.7533,2.7574,2.7613,2.7672,2.771,2.7785,2.7843,2.7904,2.7935,2.7946,2.795,2.7961,2.7952,2.7937,2.7945,2.7857,2.7947,2.7946,2.7946,2.7946,2.7946,2.7297,2.7333,2.7383,2.7438,2.7475,2.7517,2.7557,2.7591,2.764,2.7703,2.7721,2.7782,2.7834,2.7916,2.7949,2.7999,2.7994,2.801,2.8013,2.8016,2.8017,2.7931,2.801,2.801,2.801,2.801,2.801,0,2.7359,2.7392,2.7442,2.7504,2.7548,2.7555,2.7606,2.7641,2.7695,2.7742,2.779,2.7858,2.7916,2.7961,2.8021,2.8052,2.8058,2.8066,2.8063,2.8071,2.8018,2.8002,2.806,2.806,2.806,2.806,2.806,2.806,2.7395,2.7458,2.748,2.7562,2.7596,2.7656,2.7685,2.7724,2.7762,2.7837,2.7885,2.7915,2.7961,2.8025,2.8078,2.809,2.8111,2.8118,2.813,2.808,2.8074,2.8069,2.8054,2.8122,2.8122,2.8179,2.8179,2.818]},{"header":{"parameterUnit":"m.s-1","parameterCategory":1,"la1":30.2991,"la2":30.254,"lo1":-89.0895,"lo2":-89.0444,"dy":0.0017,"dx":0.0017,"nx":28,"ny":28,"refTime":"2024-05-27T21:00:00:Z","depth":0,"parameterNumber":3,"parameterNumberName":"V-component_of_WINDS"},"data":[0,0,0,0,0,0,0,0,0,0,0,0,0,0,0,0,0,0,0,0,0,0,0,0,0,0,0,0,0,0,0,0,0,0,0,0,0,0,0,0,0,0,0,0,0,0,0,0,0,0,0,0,0,0,0,0,0,0,4.9002,4.9004,0,4.9155,4.9157,4.9159,4.921,4.921,4.9209,4.9209,4.9358,4.9362,4.9367,0,0,0,0,0,0,0,0,0,0,0,0,0,4.8747,4.8751,4.9002,4.9004,4.9006,4.9155,4.9157,4.9159,4.921,4.921,4.9209,4.9208,4.9356,4.9362,4.9367,0,0,0,0,0,0,0,0,0,0,0,0,0,4.8874,4.8753,4.9001,4.905,4.9055,4.9154,4.9157,4.916,4.9211,4.921,4.9209,4.9208,4.9355,4.9361,4.9368,4.9428,0,0,4.9389,4.9392,0,0,0,0,0,0,0,0,4.8867,4.8884,4.9041,4.9046,4.9053,4.9163,4.9122,4.9249,4.9211,4.9151,4.9209,4.9208,4.9293,4.9305,4.9336,4.9435,4.9441,4.9389,4.9394,4.9396,4.9398,0,0,0,0,0,0,0,4.8858,4.8877,4.9062,4.9043,4.905,4.9061,4.9078,4.9146,4.9225,4.9157,4.9161,4.9179,4.9296,4.9329,4.9339,4.9444,4.9389,4.9395,4.9399,4.9402,4.9599,4.96,0,0,0,0,0,0,4.8842,4.887,4.9057,4.9067,4.8956,4.9066,4.9086,4.9128,4.9225,4.9239,4.9179,4.918,4.9318,4.9331,4.9345,4.9421,4.9396,4.9403,4.9407,4.9598,4.9599,4.9601,0,0,0,0,0,0,4.8837,4.8859,4.9051,4.897,4.8995,4.9072,4.9119,4.9132,4.9165,4.9242,4.9256,4.9198,4.9317,4.9335,4.9407,4.9427,4.9406,4.9412,4.9597,4.9598,4.96,4.9575,0,0,0,0,0,0,4.8829,4.8856,4.8882,4.897,4.8999,4.9113,4.9121,4.9136,4.9177,4.918,4.9263,4.9276,4.9318,4.9397,4.9414,4.9436,4.9417,4.9595,4.9597,4.9599,4.9574,4.9575,4.9576,0,0,0,0,0,4.882,4.8867,4.8883,4.8905,4.9033,4.9114,4.9131,4.918,4.9178,4.9203,4.9253,4.9274,4.9422,4.9404,4.9424,4.9448,4.9594,4.9597,4.9599,4.9573,4.9575,4.9576,0,0,0,0,0,0,4.8776,4.8879,4.8898,4.8975,4.9036,4.9123,4.9156,4.918,4.9241,4.9241,4.9297,4.9316,4.9383,4.9423,4.94,4.9511,4.9509,4.9516,4.9483,4.9485,4.9486,4.9475,4.9423,0,0,0,0,0,4.8776,4.8836,4.8922,4.8982,4.9012,4.9078,4.9116,4.9149,4.9213,4.9238,4.9293,4.9352,4.9413,4.9451,4.951,4.958,4.9598,4.9606,4.9607,4.9608,4.9613,4.9652,4.9656,4.9609,4.9609,4.9609,0,0,4.8775,4.8839,4.8873,4.8975,4.9026,4.9084,4.91,4.9161,4.9205,4.9247,4.9319,4.9361,4.9431,4.9502,4.9536,4.9537,4.963,4.9611,4.9611,4.9616,4.9655,4.9659,4.9663,4.9611,4.9611,4.961,0,0,4.8805,4.8859,4.8915,4.8967,4.9044,4.9089,4.9102,4.9186,4.9216,4.929,4.9323,4.9374,4.9476,4.9525,4.9563,4.961,4.9631,4.9628,4.9633,4.9671,4.9675,4.9678,4.9695,4.97,4.9632,4.9632,4.9632,0,4.8793,4.8886,4.894,4.9001,4.9044,4.9087,4.9143,4.9189,4.9281,4.9308,4.9309,4.9439,4.9489,4.9572,4.9583,4.9613,4.9628,4.9618,4.967,4.9674,4.9678,4.9695,4.9701,4.9631,4.9631,4.9632,4.9632,0,4.8868,4.8931,4.8967,4.9057,4.9104,4.9162,4.9223,4.9263,4.9292,4.9335,4.9409,4.9471,4.9543,4.9565,4.9593,4.9652,4.965,4.966,4.9659,4.9681,4.9697,4.9704,4.963,4.963,4.9631,4.9631,0,0,4.8873,4.8995,4.9006,4.9048,4.9137,4.9186,4.9244,4.9318,4.9352,4.9413,4.9463,4.9549,4.9558,4.9601,4.9634,4.9667,4.97,4.9673,4.9675,4.9676,4.9768,4.976,4.9767,4.9715,4.9716,4.9717,4.9762,0,4.8914,4.9024,4.9074,4.9161,4.9219,4.9261,4.9312,4.937,4.9412,4.9466,4.9511,4.9572,4.958,4.9606,4.9641,4.9689,4.9719,4.9686,4.9759,4.9761,4.9741,4.9775,4.9768,4.9807,4.9769,4.977,4.9771,0,4.8976,4.904,4.9133,4.9216,4.9242,4.9287,4.9359,4.941,4.9477,4.9505,4.9553,4.9586,4.9647,4.9642,4.9726,4.9702,4.9735,4.9763,4.9765,4.9774,4.9767,4.9784,4.9821,4.9827,4.9781,4.978,4.978,0,4.897,4.908,4.915,4.9184,4.9282,4.9313,4.9354,4.9421,4.9462,4.9523,4.955,4.9616,4.9653,4.9702,4.9751,4.9743,4.983,4.9829,4.9853,4.9852,4.987,4.9868,4.9911,4.9891,4.989,4.989,4.989,0,4.901,4.9065,4.9149,4.9192,4.9254,4.931,4.937,4.9414,4.9473,4.9523,4.9562,4.9608,4.967,4.9723,4.976,4.9824,4.984,4.9863,4.9872,4.9859,4.9856,4.9881,4.988,4.9892,4.9892,4.9891,4.9891,0,4.9014,4.9073,4.9152,4.9238,4.9261,4.9303,4.9377,4.9418,4.9463,4.9526,4.9544,4.9612,4.9677,4.9731,4.9814,4.984,4.9905,4.9916,4.9884,4.9889,4.991,4.9907,4.9971,4.9982,4.9953,4.9954,4.9954,0,4.9035,4.9079,4.9171,4.9209,4.9251,4.9312,4.9354,4.9411,4.9453,4.9533,4.9565,4.9633,4.9691,4.9791,4.9847,4.9911,4.9923,4.9941,4.9933,4.9919,4.9924,4.992,4.9925,4.9942,4.9942,4.9942,4.9942,0,4.9067,4.9094,4.9156,4.9228,4.9278,4.9337,4.9396,4.9424,4.9491,4.9536,4.9605,4.9649,4.9736,4.9803,4.9873,4.9913,4.9938,4.9944,4.9953,4.9941,4.992,4.9932,4.9885,4.9942,4.9942,4.9942,4.9942,4.9942,4.908,4.9121,4.9193,4.926,4.9311,4.9366,4.941,4.946,4.9519,4.9596,4.9625,4.9695,4.9759,4.9857,4.9897,4.9951,4.9954,4.9966,4.997,4.9972,4.9971,4.9912,4.9963,4.9963,4.9964,4.9964,4.9964,0,4.9114,4.9163,4.9224,4.9307,4.9359,4.9381,4.9448,4.9489,4.9551,4.9611,4.9667,4.9745,4.9809,4.987,4.9938,4.9969,4.9982,4.9984,4.9982,4.9991,4.9964,4.995,4.9973,4.9973,4.9973,4.9972,4.9972,4.9972,4.9138,4.9208,4.9244,4.9339,4.9387,4.9457,4.9493,4.9543,4.9591,4.9677,4.9733,4.9773,4.9833,4.9905,4.9964,4.998,5.0003,5.0002,5.0021,4.9995,4.9993,4.9991,4.9978,5.0007,5.0007,5.0044,5.0044,5.0045]}]]